Regional Weather Roundup
Issued by NWS New Orleans/Baton Rouge, LA

Home | Current Version | Previous Version | Text Only | Print | Product List | Glossary On
Versions: 1 2 3 4 5 6 7 8 9 10 11 12 13 14 15 16 17 18 19 20 21 22 23 24 25 26 27
000
ASUS44 KLIX 240313
RWRLIX
NEW ORLEANS REGIONAL WEATHER ROUNDUP
NATIONAL WEATHER SERVICE NEW ORLEANS LA
900 PM CST TUE JAN 23 2018

NOTE: "FAIR" INDICATES FEW OR NO CLOUDS BELOW 12,000 FEET WITH NO
      SIGNIFICANT WEATHER AND/OR OBSTRUCTIONS TO VISIBILITY.
      SKY/WX - SKY CONDITION AND SIGNIFICANT WEATHER.
      TMP - AIR TEMPERATURE.     DP    - DEWPOINT TEMPERATURE.
      RH  - RELATIVE HUMIDITY.   PRES  - PRESSURE.
      HI  - HEAT INDEX.          WCI   - WIND CHILL INDEX.

*  THESE STATIONS ARE NOT NWS OR FAA STATIONS AND ARE NOT UNDER
   NWS QUALITY CONTROL.

LAZ038-040-048-061>063-065>067-069-240400-
SOUTHEAST LOUISIANA

CITY           SKY/WX    TMP DP  RH WIND       PRES   REMARKS
N.O. INTL ARPT FAIR      52  36  54 N9        30.24R
N.O. LAKEFRONT FAIR      50  39  66 N13       30.24R
N.O. DOWNTOWN* FAIR      55  27  34 N9        30.24S
RESERVE*       FAIR      54  24  31 N12       30.25S
SLIDELL        FAIR      46  30  53 N6        30.25R
BATON ROUGE    FAIR      45  33  63 CALM      30.28R
BOOTHVILLE     FAIR      53  41  63 NW5       30.23R
BELLE CHASSE   FAIR      52  33  48 N6        30.23R
BOGALUSA*      FAIR      42  35  76 CALM      30.27R
GALLIANO*      FAIR      51  29  43 NW7       30.23R
NEW ROADS*     FAIR      41  31  67 CALM      30.28S
GONZALES*      FAIR      48  30  49 N5        30.26S
HAMMOND*       FAIR      43  32  65 N3        30.27R
HOUMA*         FAIR      51  31  45 N7        30.23S
PORT FOURCHON* CLOUDY    55  37  50 N7        30.23R

$$

MSZ070-080>082-240400-
SOUTHERN MISSISSIPPI

CITY           SKY/WX    TMP DP  RH WIND       PRES   REMARKS
MCCOMB         FAIR      44  30  57 CALM      30.27R
GULFPORT       FAIR      49  30  48 N9        30.23R
BILOXI         FAIR      52  29  42 N7        30.22R
PASCAGOULA     FAIR      45  30  55 N5        30.23R

$$

COASTAL OBSERVATIONS
LAKE AND NEARSHORE STATIONS

STATION/POSITION TIME  SKY/WX   TEMP    WIND        PRES    WAVE
                                AIR SEA DIR/SP/G            HT/PER
                 (UTC)          (F)     (DEG/KT/KT) (MB)    (FT/S)
PASCAGOULA       0236            54     350/  6/  8 1022.9
WAVELAND YACHT   0236            54 52  350/ 11/ 12 1023.5
GRAND ISLE       0248            56 58  350/  8/ 11 1023.5
SOUTHWEST PASS   0236            55 51  350/ 10/ 13 1023.5
NEW CANAL        0248            51 51  350/  9/ 11 1023.8
SHELL BEACH      0236            54 54  340/ 12/ 13 1023.6

OFFSHORE STATIONS

STATION/POSITION TIME  SKY/WX   TEMP    WIND        PRES    WAVE
                                AIR SEA DIR/SP/G            HT/PER
                 (UTC)          (F)     (DEG/KT/KT) (MB)    (FT/S)
64 S DAUPHIN ISL 0250            62 66  320/ 14/ 19 1023.0    3/ 4

$$





USA.gov is the U.S. government's official web portal to all federal, state and local government web resources and services.